Regional Weather Roundup
Issued by NWS Little Rock, AR

Home | Current Version | Previous Version | Text Only | Print | Product List | Glossary Off
Versions: 1 2 3 4 5 6 7 8 9 10 11 12 13 14 15 16 17 18 19 20 21 22 23 24 25 26 27 28 29 30 31 32

000
ASUS44 KLZK 221005
RWRLZK

WEATHER ROUNDUP FOR ARKANSAS
NATIONAL WEATHER SERVICE LITTLE ROCK AR
500 AM CDT TUE AUG 22 2017

NOTE: "FAIR" INDICATES FEW OR NO CLOUDS BELOW 12,000 FEET WITH NO
SIGNIFICANT WEATHER AND/OR OBSTRUCTIONS TO VISIBILITY.

ARZ001-003-010-029-221100-
NORTHWEST ARKANSAS

CITY           SKY/WX    TMP DP  RH WIND       PRES   REMARKS
FAYETTEVILLE   CLEAR     74  72  93 S6        30.04S
FORT SMITH     CLEAR     75  74  96 CALM      30.01S
HARRISON       CLEAR     76  70  82 VRB7      30.04S
BENTONVILLE    CLEAR     73  70  88 SW6       30.04S
ROGERS         CLEAR     75  71  87 SW10      30.05R
HIGHFILL       CLEAR     74  73  97 SW8       30.04
$$

ARZ004-005-016-221100-
NORTH CENTRAL ARKANSAS

CITY           SKY/WX    TMP DP  RH WIND       PRES   REMARKS
FLIPPIN        CLEAR     73  68  83 CALM      29.99S
MTN HOME       CLEAR     75  73  93 SW3       30.01S
$$

ARZ040-041-221100-
WEST CENTRAL ARKANSAS

CITY           SKY/WX    TMP DP  RH WIND       PRES   REMARKS
MENA           CLEAR     79  77  94 CALM      30.06S
MOUNT IDA      CLEAR     73  71  93 CALM      30.03R FOG
$$

ARZ009-017-025-026-028-221100-
NORTHEAST ARKANSAS

CITY           SKY/WX    TMP DP  RH WIND       PRES   REMARKS
CORNING        FAIR      75  77 100 SW6       30.00R
JONESBORO      CLEAR     77  76  96 SW7       30.00S
NEWPORT        CLEAR     75  74  96 S7        30.01S
WALNUT RIDGE   CLEAR     75  72  88 SW6       30.00R
BLYTHEVILLE    CLEAR     77  74  90 SW8       30.01R
$$

ARZ022-023-033-042-044-221100-
CENTRAL ARKANSAS

CITY           SKY/WX    TMP DP  RH WIND       PRES   REMARKS
LITTLE ROCK    CLEAR     75  75 100 SW3       30.02S
N LITTLE ROCK    N/A     77  74  90 SW3       30.02S
JACKSONVILLE   CLEAR     75  75 100 CALM      30.01S
CONWAY           N/A     75  75 100 S3        30.00S FOG
SEARCY         CLEAR     74  74 100 S5        30.03S FOG
HOT SPRINGS    CLEAR     77  75  93 NW3       30.03F
RUSSELLVILLE   CLEAR     74  74 100 S3        30.01S FOG
CLINTON        FAIR      73  72  94 CALM      30.03R FOG
$$

ARZ036-221100-
EAST ARKANSAS

CITY           SKY/WX    TMP DP  RH WIND       PRES   REMARKS
WEST MEMPHIS   CLEAR     75  74  96 S5        30.01F
$$

ARZ050-053-066-070-073-221100-
SOUTHWEST ARKANSAS

CITY           SKY/WX    TMP DP  RH WIND       PRES   REMARKS
ARKADELPHIA    FOG       73  72  96 CALM      30.03S VSB 1/4
CAMDEN         PTCLDY    73  72  94 CALM      30.03S FOG
TEXARKANA      CLEAR     75  74  96 S5        30.04S
EL DORADO      CLEAR     74  73  97 CALM      30.05S
DE QUEEN       FOG       71  71 100 CALM      30.02S VSB 1/4
$$

ARZ056-057-069-221100-
SOUTHEAST ARKANSAS

CITY           SKY/WX    TMP DP  RH WIND       PRES   REMARKS
PINE BLUFF     CLEAR     74  73  97 S6        30.03F
MONTICELLO     PTCLDY    76  72  87 SW3       30.04S

$$






USA.gov is the U.S. government's official web portal to all federal, state and local government web resources and services.